Year,Month,Day,Hour,Minute,Value (Times are PST for temperature in C)
2006,08,22,00,00,13.30
2006,08,22,00,01,13.30
2006,08,22,00,02,13.30
2006,08,22,00,03,13.30
2006,08,22,00,04,13.30
2006,08,22,00,05,13.30
2006,08,22,00,06,13.30
2006,08,22,00,07,13.30
2006,08,22,00,08,13.30
2006,08,22,00,09,13.20
2006,08,22,00,10,13.20
2006,08,22,00,11,13.20
2006,08,22,00,12,13.20
2006,08,22,00,13,13.20
2006,08,22,00,14,13.20
2006,08,22,00,15,13.20
2006,08,22,00,16,13.20
2006,08,22,00,17,13.20
2006,08,22,00,18,13.20
2006,08,22,00,19,13.20
2006,08,22,00,20,13.20
2006,08,22,00,21,13.20
2006,08,22,00,22,13.20
2006,08,22,00,23,13.20
2006,08,22,00,24,13.10
2006,08,22,00,25,13.10
2006,08,22,00,26,13.10
2006,08,22,00,27,13.10
2006,08,22,00,28,13.10
2006,08,22,00,29,13.10
2006,08,22,00,30,13.10
2006,08,22,00,31,13.10
2006,08,22,00,32,13.10
2006,08,22,00,33,13.10
2006,08,22,00,34,13.10
2006,08,22,00,35,13.00
2006,08,22,00,36,13.00
2006,08,22,00,37,13.00
2006,08,22,00,38,13.00
2006,08,22,00,39,12.90
2006,08,22,00,40,12.90
2006,08,22,00,41,12.80
2006,08,22,00,42,12.80
2006,08,22,00,43,12.80
2006,08,22,00,44,12.80
2006,08,22,00,45,12.80
2006,08,22,00,46,12.80
2006,08,22,00,47,12.80
2006,08,22,00,48,12.80
2006,08,22,00,49,12.80
2006,08,22,00,50,12.80
2006,08,22,00,51,12.80
2006,08,22,00,52,12.70
2006,08,22,00,53,12.70
2006,08,22,00,54,12.70
2006,08,22,00,55,12.70
2006,08,22,00,56,12.70
2006,08,22,00,57,12.60
2006,08,22,00,58,12.60
2006,08,22,00,59,12.60
2006,08,22,01,00,12.60
2006,08,22,01,01,12.50
2006,08,22,01,02,12.50
2006,08,22,01,03,12.50
2006,08,22,01,04,12.50
2006,08,22,01,05,12.40
2006,08,22,01,06,12.40
2006,08,22,01,07,12.40
2006,08,22,01,08,12.40
2006,08,22,01,09,12.40
2006,08,22,01,10,12.40
2006,08,22,01,11,12.30
2006,08,22,01,12,12.30
2006,08,22,01,13,12.30
2006,08,22,01,14,12.30
2006,08,22,01,15,12.30
2006,08,22,01,16,12.30
2006,08,22,01,17,12.30
2006,08,22,01,18,12.30
2006,08,22,01,19,12.30
2006,08,22,01,20,12.30
2006,08,22,01,21,12.30
2006,08,22,01,22,12.30
2006,08,22,01,23,12.30
2006,08,22,01,24,12.30
2006,08,22,01,25,12.30
2006,08,22,01,26,12.30
2006,08,22,01,27,12.30
2006,08,22,01,28,12.30
2006,08,22,01,29,12.30
2006,08,22,01,30,12.30
2006,08,22,01,31,12.30
2006,08,22,01,32,12.30
2006,08,22,01,33,12.30
2006,08,22,01,34,12.30
2006,08,22,01,35,12.30
2006,08,22,01,36,12.30
2006,08,22,01,37,12.20
2006,08,22,01,38,12.20
2006,08,22,01,39,12.20
2006,08,22,01,40,12.20
2006,08,22,01,41,12.10
2006,08,22,01,42,12.10
2006,08,22,01,43,12.10
2006,08,22,01,44,12.10
2006,08,22,01,45,12.10
2006,08,22,01,46,12.00
2006,08,22,01,47,12.00
2006,08,22,01,48,12.00
2006,08,22,01,49,12.00
2006,08,22,01,50,12.00
2006,08,22,01,51,12.00
2006,08,22,01,52,11.90
2006,08,22,01,53,11.90
2006,08,22,01,54,11.90
2006,08,22,01,55,11.90
2006,08,22,01,56,11.80
2006,08,22,01,57,11.80
2006,08,22,01,58,11.80
2006,08,22,01,59,11.80
2006,08,22,02,00,11.80
2006,08,22,02,01,11.80
2006,08,22,02,02,11.80
2006,08,22,02,03,11.80
2006,08,22,02,04,11.80
2006,08,22,02,05,11.70
2006,08,22,02,06,11.70
2006,08,22,02,07,11.70
2006,08,22,02,08,11.70
2006,08,22,02,09,11.70
2006,08,22,02,10,11.70
2006,08,22,02,11,11.60
2006,08,22,02,12,11.60
2006,08,22,02,13,11.60
2006,08,22,02,14,11.60
2006,08,22,02,15,11.60
2006,08,22,02,16,11.60
2006,08,22,02,17,11.60
2006,08,22,02,18,11.60
2006,08,22,02,19,11.60
2006,08,22,02,20,11.60
2006,08,22,02,21,11.60
2006,08,22,02,22,11.60
2006,08,22,02,23,11.60
2006,08,22,02,24,11.60
2006,08,22,02,25,11.60
2006,08,22,02,26,11.60
2006,08,22,02,27,11.60
2006,08,22,02,28,11.60
2006,08,22,02,29,11.60
2006,08,22,02,30,11.70
2006,08,22,02,31,11.80
2006,08,22,02,32,11.80
2006,08,22,02,33,11.80
2006,08,22,02,34,11.80
2006,08,22,02,35,11.80
2006,08,22,02,36,11.80
2006,08,22,02,37,11.80
2006,08,22,02,38,11.80
2006,08,22,02,39,11.80
2006,08,22,02,40,11.80
2006,08,22,02,41,11.70
2006,08,22,02,42,11.70
2006,08,22,02,43,11.70
2006,08,22,02,44,11.70
2006,08,22,02,45,11.60
2006,08,22,02,46,11.60
2006,08,22,02,47,11.60
2006,08,22,02,48,11.60
2006,08,22,02,49,11.40
2006,08,22,02,50,11.40
2006,08,22,02,51,11.40
2006,08,22,02,52,11.40
2006,08,22,02,53,11.40
2006,08,22,02,54,11.40
2006,08,22,02,55,11.50
2006,08,22,02,56,11.60
2006,08,22,02,57,11.60
2006,08,22,02,58,11.60
2006,08,22,02,59,11.60
2006,08,22,03,00,11.60
2006,08,22,03,01,11.50
2006,08,22,03,02,11.40
2006,08,22,03,03,11.40
2006,08,22,03,04,11.40
2006,08,22,03,05,11.40
2006,08,22,03,06,11.40
2006,08,22,03,07,11.40
2006,08,22,03,08,11.40
2006,08,22,03,09,11.40
2006,08,22,03,10,11.40
2006,08,22,03,11,11.40
2006,08,22,03,12,11.40
2006,08,22,03,13,11.40
2006,08,22,03,14,11.40
2006,08,22,03,15,11.30
2006,08,22,03,16,11.30
2006,08,22,03,17,11.20
2006,08,22,03,18,11.20
2006,08,22,03,19,11.20
2006,08,22,03,20,11.20
2006,08,22,03,21,11.20
2006,08,22,03,22,11.10
2006,08,22,03,23,11.10
2006,08,22,03,24,11.00
2006,08,22,03,25,10.90
2006,08,22,03,26,10.90
2006,08,22,03,27,10.90
2006,08,22,03,28,10.80
2006,08,22,03,29,10.80
2006,08,22,03,30,10.80
2006,08,22,03,31,10.80
2006,08,22,03,32,10.80
2006,08,22,03,33,10.80
2006,08,22,03,34,10.70
2006,08,22,03,35,10.70
2006,08,22,03,36,10.70
2006,08,22,03,37,10.70
2006,08,22,03,38,10.60
2006,08,22,03,39,10.60
2006,08,22,03,40,10.60
2006,08,22,03,41,10.60
2006,08,22,03,42,10.60
2006,08,22,03,43,10.60
2006,08,22,03,44,10.60
2006,08,22,03,45,10.60
2006,08,22,03,46,10.60
2006,08,22,03,47,10.50
2006,08,22,03,48,10.40
2006,08,22,03,49,10.40
2006,08,22,03,50,10.40
2006,08,22,03,51,10.30
2006,08,22,03,52,10.30
2006,08,22,03,53,10.30
2006,08,22,03,54,10.30
2006,08,22,03,55,10.30
2006,08,22,03,56,10.30
2006,08,22,03,57,10.30
2006,08,22,03,58,10.20
2006,08,22,03,59,10.20
2006,08,22,04,00,10.10
2006,08,22,04,01,10.10
2006,08,22,04,02,10.00
2006,08,22,04,03,9.90
2006,08,22,04,04,9.90
2006,08,22,04,05,9.90
2006,08,22,04,06,9.90
2006,08,22,04,07,9.90
2006,08,22,04,08,9.90
2006,08,22,04,09,9.90
2006,08,22,04,10,9.90
2006,08,22,04,11,9.90
2006,08,22,04,12,9.90
2006,08,22,04,13,9.90
2006,08,22,04,14,9.90
2006,08,22,04,15,9.80
2006,08,22,04,16,9.80
2006,08,22,04,17,9.80
2006,08,22,04,18,9.70
2006,08,22,04,19,9.70
2006,08,22,04,20,9.70
2006,08,22,04,21,9.70
2006,08,22,04,22,9.70
2006,08,22,04,23,9.60
2006,08,22,04,24,9.60
2006,08,22,04,25,9.60
2006,08,22,04,26,9.60
2006,08,22,04,27,9.60
2006,08,22,04,28,9.50
2006,08,22,04,29,9.50
2006,08,22,04,30,9.50
2006,08,22,04,31,9.50
2006,08,22,04,32,9.40
2006,08,22,04,33,9.40
2006,08,22,04,34,9.40
2006,08,22,04,35,9.40
2006,08,22,04,36,9.40
2006,08,22,04,37,9.30
2006,08,22,04,38,9.30
2006,08,22,04,39,9.30
2006,08,22,04,40,9.20
2006,08,22,04,41,9.20
2006,08,22,04,42,9.20
2006,08,22,04,43,9.20
2006,08,22,04,44,9.20
2006,08,22,04,45,9.20
2006,08,22,04,46,9.20
2006,08,22,04,47,9.20
2006,08,22,04,48,9.20
2006,08,22,04,49,9.20
2006,08,22,04,50,9.20
2006,08,22,04,51,9.20
2006,08,22,04,52,9.20
2006,08,22,04,53,9.20
2006,08,22,04,54,9.20
2006,08,22,04,55,9.20
2006,08,22,04,56,9.10
2006,08,22,04,57,9.10
2006,08,22,04,58,9.10
2006,08,22,04,59,9.10
2006,08,22,05,00,9.10
2006,08,22,05,01,9.10
2006,08,22,05,02,9.10
2006,08,22,05,03,9.10
2006,08,22,05,04,9.10
2006,08,22,05,05,9.10
2006,08,22,05,06,9.10
2006,08,22,05,07,9.10
2006,08,22,05,08,9.00
2006,08,22,05,09,9.00
2006,08,22,05,10,9.00
2006,08,22,05,11,9.00
2006,08,22,05,12,9.00
2006,08,22,05,13,9.00
2006,08,22,05,14,8.90
2006,08,22,05,15,8.90
2006,08,22,05,16,8.90
2006,08,22,05,17,8.90
2006,08,22,05,18,8.90
2006,08,22,05,19,8.80
2006,08,22,05,20,8.80
2006,08,22,05,21,8.70
2006,08,22,05,22,8.70
2006,08,22,05,23,8.70
2006,08,22,05,24,8.70
2006,08,22,05,25,8.70
2006,08,22,05,26,8.70
2006,08,22,05,27,8.70
2006,08,22,05,28,8.70
2006,08,22,05,29,8.70
2006,08,22,05,30,8.60
2006,08,22,05,31,8.60
2006,08,22,05,32,8.60
2006,08,22,05,33,8.60
2006,08,22,05,34,8.50
2006,08,22,05,35,8.50
2006,08,22,05,36,8.50
2006,08,22,05,37,8.50
2006,08,22,05,38,8.50
2006,08,22,05,39,8.40
2006,08,22,05,40,8.40
2006,08,22,05,41,8.40
2006,08,22,05,42,8.40
2006,08,22,05,43,8.40
2006,08,22,05,44,8.40
2006,08,22,05,45,8.40
2006,08,22,05,46,8.50
2006,08,22,05,47,8.50
2006,08,22,05,48,8.50
2006,08,22,05,49,8.40
2006,08,22,05,50,8.40
2006,08,22,05,51,8.40
2006,08,22,05,52,8.40
2006,08,22,05,53,8.50
2006,08,22,05,54,8.50
2006,08,22,05,55,8.50
2006,08,22,05,56,8.50
2006,08,22,05,57,8.50
2006,08,22,05,58,8.50
2006,08,22,05,59,8.50
2006,08,22,06,00,8.50
2006,08,22,06,01,8.50
2006,08,22,06,02,8.50
2006,08,22,06,03,8.50
2006,08,22,06,04,8.40
2006,08,22,06,05,8.40
2006,08,22,06,06,8.50
2006,08,22,06,07,8.50
2006,08,22,06,08,8.50
2006,08,22,06,09,8.50
2006,08,22,06,10,8.50
2006,08,22,06,11,8.50
2006,08,22,06,12,8.50
2006,08,22,06,13,8.50
2006,08,22,06,14,8.50
2006,08,22,06,15,8.40
2006,08,22,06,16,8.40
2006,08,22,06,17,8.40
2006,08,22,06,18,8.40
2006,08,22,06,19,8.40
2006,08,22,06,20,8.30
2006,08,22,06,21,8.40
2006,08,22,06,22,8.40
2006,08,22,06,23,8.40
2006,08,22,06,24,8.40
2006,08,22,06,25,8.40
2006,08,22,06,26,8.40
2006,08,22,06,27,8.40
2006,08,22,06,28,8.30
2006,08,22,06,29,8.30
2006,08,22,06,30,8.30
2006,08,22,06,31,8.30
2006,08,22,06,32,8.30
2006,08,22,06,33,8.30
2006,08,22,06,34,8.30
2006,08,22,06,35,8.20
2006,08,22,06,36,8.20
2006,08,22,06,37,8.20
2006,08,22,06,38,8.20
2006,08,22,06,39,8.20
2006,08,22,06,40,8.20
2006,08,22,06,41,8.20
2006,08,22,06,42,8.20
2006,08,22,06,43,8.20
2006,08,22,06,44,8.20
2006,08,22,06,45,8.20
2006,08,22,06,46,8.20
2006,08,22,06,47,8.20
2006,08,22,06,48,8.20
2006,08,22,06,49,8.20
2006,08,22,06,50,8.20
2006,08,22,06,51,8.20
2006,08,22,06,52,8.20
2006,08,22,06,53,8.20
2006,08,22,06,54,8.20
2006,08,22,06,55,8.20
2006,08,22,06,56,8.20
2006,08,22,06,57,8.20
2006,08,22,06,58,8.20
2006,08,22,06,59,8.10
2006,08,22,07,00,8.10
2006,08,22,07,01,8.10
2006,08,22,07,02,8.10
2006,08,22,07,03,8.10
2006,08,22,07,04,8.10
2006,08,22,07,05,8.10
2006,08,22,07,06,8.10
2006,08,22,07,07,8.20
2006,08,22,07,08,8.20
2006,08,22,07,09,8.20
2006,08,22,07,10,8.20
2006,08,22,07,11,8.20
2006,08,22,07,12,8.20
2006,08,22,07,13,8.20
2006,08,22,07,14,8.20
2006,08,22,07,15,8.20
2006,08,22,07,16,8.20
2006,08,22,07,17,8.20
2006,08,22,07,18,8.20
2006,08,22,07,19,8.30
2006,08,22,07,20,8.30
2006,08,22,07,21,8.30
2006,08,22,07,22,8.40
2006,08,22,07,23,8.40
2006,08,22,07,24,8.40
2006,08,22,07,25,8.40
2006,08,22,07,26,8.50
2006,08,22,07,27,8.50
2006,08,22,07,28,8.50
2006,08,22,07,29,8.50
2006,08,22,07,30,8.50
2006,08,22,07,31,8.50
2006,08,22,07,32,8.60
2006,08,22,07,33,8.60
2006,08,22,07,34,8.60
2006,08,22,07,35,8.70
2006,08,22,07,36,8.70
2006,08,22,07,37,8.70
2006,08,22,07,38,8.80
2006,08,22,07,39,8.90
2006,08,22,07,40,8.90
2006,08,22,07,41,9.00
2006,08,22,07,42,9.00
2006,08,22,07,43,9.10
2006,08,22,07,44,9.10
2006,08,22,07,45,9.20
2006,08,22,07,46,9.20
2006,08,22,07,47,9.20
2006,08,22,07,48,9.30
2006,08,22,07,49,9.30
2006,08,22,07,50,9.40
2006,08,22,07,51,9.40
2006,08,22,07,52,9.50
2006,08,22,07,53,9.60
2006,08,22,07,54,9.70
2006,08,22,07,55,9.70
2006,08,22,07,56,9.80
2006,08,22,07,57,9.80
2006,08,22,07,58,9.90
2006,08,22,07,59,9.90
2006,08,22,08,00,10.00
2006,08,22,08,01,10.10
2006,08,22,08,02,10.10
2006,08,22,08,03,10.20
2006,08,22,08,04,10.20
2006,08,22,08,05,10.30
2006,08,22,08,06,10.40
2006,08,22,08,07,10.40
2006,08,22,08,08,10.50
2006,08,22,08,09,10.70
2006,08,22,08,10,10.80
2006,08,22,08,11,10.90
2006,08,22,08,12,11.00
2006,08,22,08,13,11.10
2006,08,22,08,14,11.20
2006,08,22,08,15,11.30
2006,08,22,08,16,11.40
2006,08,22,08,17,11.50
2006,08,22,08,18,11.60
2006,08,22,08,19,11.70
2006,08,22,08,20,11.80
2006,08,22,08,21,11.80
2006,08,22,08,22,11.90
2006,08,22,08,23,11.90
2006,08,22,08,24,12.00
2006,08,22,08,25,12.10
2006,08,22,08,26,12.10
2006,08,22,08,27,12.20
2006,08,22,08,28,12.40
2006,08,22,08,29,12.50
2006,08,22,08,30,12.60
2006,08,22,08,31,12.70
2006,08,22,08,32,12.70
2006,08,22,08,33,12.70
2006,08,22,08,34,12.80
2006,08,22,08,35,12.80
2006,08,22,08,36,12.90
2006,08,22,08,37,12.90
2006,08,22,08,38,13.00
2006,08,22,08,39,13.00
2006,08,22,08,40,13.10
2006,08,22,08,41,13.20
2006,08,22,08,42,13.10
2006,08,22,08,43,13.10
2006,08,22,08,44,13.00
2006,08,22,08,45,13.00
2006,08,22,08,46,13.00
2006,08,22,08,47,13.00
2006,08,22,08,48,13.10
2006,08,22,08,49,13.20
2006,08,22,08,50,13.30
2006,08,22,08,51,13.40
2006,08,22,08,52,13.40
2006,08,22,08,53,13.50
2006,08,22,08,54,13.50
2006,08,22,08,55,13.50
2006,08,22,08,56,13.40
2006,08,22,08,57,13.30
2006,08,22,08,58,13.30
2006,08,22,08,59,13.40
2006,08,22,09,00,13.40
2006,08,22,09,01,13.50
2006,08,22,09,02,13.50
2006,08,22,09,03,13.60
2006,08,22,09,04,13.70
2006,08,22,09,05,13.70
2006,08,22,09,06,13.80
2006,08,22,09,07,13.80
2006,08,22,09,08,13.80
2006,08,22,09,09,13.80
2006,08,22,09,10,13.80
2006,08,22,09,11,13.90
2006,08,22,09,12,13.90
2006,08,22,09,13,14.00
2006,08,22,09,14,14.00
2006,08,22,09,15,14.10
2006,08,22,09,16,14.10
2006,08,22,09,17,14.00
2006,08,22,09,18,13.90
2006,08,22,09,19,13.90
2006,08,22,09,20,13.90
2006,08,22,09,21,13.90
2006,08,22,09,22,14.00
2006,08,22,09,23,14.10
2006,08,22,09,24,14.20
2006,08,22,09,25,14.20
2006,08,22,09,26,14.10
2006,08,22,09,27,13.90
2006,08,22,09,28,13.90
2006,08,22,09,29,13.90
2006,08,22,09,30,13.80
2006,08,22,09,31,13.80
2006,08,22,09,32,13.90
2006,08,22,09,33,13.90
2006,08,22,09,34,14.00
2006,08,22,09,35,14.10
2006,08,22,09,36,14.20
2006,08,22,09,37,14.10
2006,08,22,09,38,14.00
2006,08,22,09,39,14.00
2006,08,22,09,40,14.00
2006,08,22,09,41,13.90
2006,08,22,09,42,14.00
2006,08,22,09,43,14.20
2006,08,22,09,44,14.40
2006,08,22,09,45,14.40
2006,08,22,09,46,14.60
2006,08,22,09,47,14.70
2006,08,22,09,48,14.70
2006,08,22,09,49,14.70
2006,08,22,09,50,14.60
2006,08,22,09,51,14.60
2006,08,22,09,52,14.60
2006,08,22,09,53,14.80
2006,08,22,09,54,14.80
2006,08,22,09,55,14.90
2006,08,22,09,56,14.90
2006,08,22,09,57,15.00
2006,08,22,09,58,14.90
2006,08,22,09,59,14.90
2006,08,22,10,00,14.90
2006,08,22,10,01,14.70
2006,08,22,10,02,14.60
2006,08,22,10,03,14.60
2006,08,22,10,04,14.70
2006,08,22,10,05,14.80
2006,08,22,10,06,14.80
2006,08,22,10,07,14.80
2006,08,22,10,08,14.80
2006,08,22,10,09,14.90
2006,08,22,10,10,14.90
2006,08,22,10,11,14.90
2006,08,22,10,12,15.00
2006,08,22,10,13,15.10
2006,08,22,10,14,15.20
2006,08,22,10,15,15.10
2006,08,22,10,16,14.90
2006,08,22,10,17,14.70
2006,08,22,10,18,14.60
2006,08,22,10,19,14.50
2006,08,22,10,20,14.20
2006,08,22,10,21,14.10
2006,08,22,10,22,14.10
2006,08,22,10,23,13.90
2006,08,22,10,24,13.70
2006,08,22,10,25,13.60
2006,08,22,10,26,13.50
2006,08,22,10,27,13.40
2006,08,22,10,28,13.30
2006,08,22,10,29,13.30
2006,08,22,10,30,13.30
2006,08,22,10,31,13.40
2006,08,22,10,32,13.50
2006,08,22,10,33,13.40
2006,08,22,10,34,13.40
2006,08,22,10,35,13.50
2006,08,22,10,36,13.60
2006,08,22,10,37,13.60
2006,08,22,10,38,13.50
2006,08,22,10,39,13.70
2006,08,22,10,40,13.80
2006,08,22,10,41,13.90
2006,08,22,10,42,14.00
2006,08,22,10,43,14.00
2006,08,22,10,44,14.10
2006,08,22,10,45,14.20
2006,08,22,10,46,14.40
2006,08,22,10,47,14.50
2006,08,22,10,48,14.30
2006,08,22,10,49,14.20
2006,08,22,10,50,14.20
2006,08,22,10,51,14.20
2006,08,22,10,52,14.00
2006,08,22,10,53,13.90
2006,08,22,10,54,13.80
2006,08,22,10,55,13.70
2006,08,22,10,56,13.60
2006,08,22,10,57,13.30
2006,08,22,10,58,13.20
2006,08,22,10,59,13.30
2006,08,22,11,00,13.40
2006,08,22,11,01,13.50
2006,08,22,11,02,13.60
2006,08,22,11,03,13.70
2006,08,22,11,04,13.80
2006,08,22,11,05,13.90
2006,08,22,11,06,14.00
2006,08,22,11,07,14.00
2006,08,22,11,08,14.00
2006,08,22,11,09,13.90
2006,08,22,11,10,13.90
2006,08,22,11,11,13.90
2006,08,22,11,12,14.10
2006,08,22,11,13,14.20
2006,08,22,11,14,14.40
2006,08,22,11,15,14.40
2006,08,22,11,16,14.50
2006,08,22,11,17,14.50
2006,08,22,11,18,14.50
2006,08,22,11,19,14.60
2006,08,22,11,20,14.50
2006,08,22,11,21,14.50
2006,08,22,11,22,14.60
2006,08,22,11,23,14.90
2006,08,22,11,24,14.90
2006,08,22,11,25,15.10
2006,08,22,11,26,15.20
2006,08,22,11,27,15.30
2006,08,22,11,28,15.30
2006,08,22,11,29,15.20
2006,08,22,11,30,15.20
2006,08,22,11,31,15.30
2006,08,22,11,32,15.30
2006,08,22,11,33,15.30
2006,08,22,11,34,15.40
2006,08,22,11,35,15.40
2006,08,22,11,36,15.30
2006,08,22,11,37,15.40
2006,08,22,11,38,15.50
2006,08,22,11,39,15.40
2006,08,22,11,40,15.30
2006,08,22,11,41,15.30
2006,08,22,11,42,15.10
2006,08,22,11,43,15.10
2006,08,22,11,44,15.10
2006,08,22,11,45,15.10
2006,08,22,11,46,15.10
2006,08,22,11,47,15.10
2006,08,22,11,48,15.00
2006,08,22,11,49,15.00
2006,08,22,11,50,15.00
2006,08,22,11,51,15.20
2006,08,22,11,52,15.30
2006,08,22,11,53,15.30
2006,08,22,11,54,15.20
2006,08,22,11,55,15.00
2006,08,22,11,56,15.00
2006,08,22,11,57,15.00
2006,08,22,11,58,15.00
2006,08,22,11,59,15.00
2006,08,22,12,00,15.00
2006,08,22,12,01,14.90
2006,08,22,12,02,14.90
2006,08,22,12,03,14.90
2006,08,22,12,04,15.00
2006,08,22,12,05,15.10
2006,08,22,12,06,15.20
2006,08,22,12,07,15.30
2006,08,22,12,08,15.40
2006,08,22,12,09,15.40
2006,08,22,12,10,15.30
2006,08,22,12,11,15.30
2006,08,22,12,12,15.10
2006,08,22,12,13,15.00
2006,08,22,12,14,14.80
2006,08,22,12,15,14.80
2006,08,22,12,16,14.80
2006,08,22,12,17,14.80
2006,08,22,12,18,15.10
2006,08,22,12,19,15.20
2006,08,22,12,20,15.30
2006,08,22,12,21,15.50
2006,08,22,12,22,15.70
2006,08,22,12,23,15.80
2006,08,22,12,24,15.80
2006,08,22,12,25,15.70
2006,08,22,12,26,15.60
2006,08,22,12,27,15.40
2006,08,22,12,28,15.30
2006,08,22,12,29,15.30
2006,08,22,12,30,15.20
2006,08,22,12,31,15.00
2006,08,22,12,32,15.00
2006,08,22,12,33,14.90
2006,08,22,12,34,14.70
2006,08,22,12,35,14.80
2006,08,22,12,36,14.90
2006,08,22,12,37,15.00
2006,08,22,12,38,15.00
2006,08,22,12,39,15.10
2006,08,22,12,40,15.20
2006,08,22,12,41,15.20
2006,08,22,12,42,15.30
2006,08,22,12,43,15.40
2006,08,22,12,44,15.60
2006,08,22,12,45,15.50
2006,08,22,12,46,15.40
2006,08,22,12,47,15.50
2006,08,22,12,48,15.50
2006,08,22,12,49,15.50
2006,08,22,12,50,15.60
2006,08,22,12,51,15.60
2006,08,22,12,52,15.50
2006,08,22,12,53,15.40
2006,08,22,12,54,15.30
2006,08,22,12,55,15.40
2006,08,22,12,56,15.60
2006,08,22,12,57,15.60
2006,08,22,12,58,15.80
2006,08,22,12,59,15.80
2006,08,22,13,00,15.60
2006,08,22,13,01,15.50
2006,08,22,13,02,15.40
2006,08,22,13,03,15.50
2006,08,22,13,04,15.70
2006,08,22,13,05,15.60
2006,08,22,13,06,15.50
2006,08,22,13,07,15.30
2006,08,22,13,08,15.20
2006,08,22,13,09,15.10
2006,08,22,13,10,15.30
2006,08,22,13,11,15.50
2006,08,22,13,12,15.60
2006,08,22,13,13,15.60
2006,08,22,13,14,15.40
2006,08,22,13,15,15.30
2006,08,22,13,16,15.10
2006,08,22,13,17,15.10
2006,08,22,13,18,15.00
2006,08,22,13,19,15.00
2006,08,22,13,20,15.00
2006,08,22,13,21,14.90
2006,08,22,13,22,14.90
2006,08,22,13,23,15.00
2006,08,22,13,24,15.20
2006,08,22,13,25,15.30
2006,08,22,13,26,15.20
2006,08,22,13,27,15.10
2006,08,22,13,28,15.10
2006,08,22,13,29,15.40
2006,08,22,13,30,15.70
2006,08,22,13,31,15.90
2006,08,22,13,32,15.90
2006,08,22,13,33,16.10
2006,08,22,13,34,16.20
2006,08,22,13,35,16.20
2006,08,22,13,36,16.30
2006,08,22,13,37,16.30
2006,08,22,13,38,16.30
2006,08,22,13,39,16.20
2006,08,22,13,40,16.00
2006,08,22,13,41,16.20
2006,08,22,13,42,16.20
2006,08,22,13,43,16.10
2006,08,22,13,44,16.00
2006,08,22,13,45,15.80
2006,08,22,13,46,15.80
2006,08,22,13,47,15.90
2006,08,22,13,48,16.00
2006,08,22,13,49,15.90
2006,08,22,13,50,15.80
2006,08,22,13,51,15.80
2006,08,22,13,52,16.00
2006,08,22,13,53,15.90
2006,08,22,13,54,15.80
2006,08,22,13,55,15.70
2006,08,22,13,56,15.70
2006,08,22,13,57,15.80
2006,08,22,13,58,15.80
2006,08,22,13,59,16.00
2006,08,22,14,00,16.10
2006,08,22,14,01,16.40
2006,08,22,14,02,16.70
2006,08,22,14,03,16.70
2006,08,22,14,04,16.80
2006,08,22,14,05,16.80
2006,08,22,14,06,16.70
2006,08,22,14,07,16.70
2006,08,22,14,08,16.70
2006,08,22,14,09,16.50
2006,08,22,14,10,16.60
2006,08,22,14,11,16.60
2006,08,22,14,12,16.50
2006,08,22,14,13,16.40
2006,08,22,14,14,16.40
2006,08,22,14,15,16.50
2006,08,22,14,16,16.70
2006,08,22,14,17,16.70
2006,08,22,14,18,16.60
2006,08,22,14,19,16.40
2006,08,22,14,20,16.40
2006,08,22,14,21,16.50
2006,08,22,14,22,16.70
2006,08,22,14,23,16.70
2006,08,22,14,24,16.70
2006,08,22,14,25,16.50
2006,08,22,14,26,16.40
2006,08,22,14,27,16.40
2006,08,22,14,28,16.40
2006,08,22,14,29,16.40
2006,08,22,14,30,16.40
2006,08,22,14,31,16.50
2006,08,22,14,32,16.70
2006,08,22,14,33,16.90
2006,08,22,14,34,17.00
2006,08,22,14,35,17.00
2006,08,22,14,36,17.00
2006,08,22,14,37,16.80
2006,08,22,14,38,16.60
2006,08,22,14,39,16.20
2006,08,22,14,40,15.90
2006,08,22,14,41,15.50
2006,08,22,14,42,15.30
2006,08,22,14,43,15.20
2006,08,22,14,44,15.20
2006,08,22,14,45,15.10
2006,08,22,14,46,15.00
2006,08,22,14,47,15.00
2006,08,22,14,48,15.10
2006,08,22,14,49,15.30
2006,08,22,14,50,15.30
2006,08,22,14,51,15.30
2006,08,22,14,52,15.20
2006,08,22,14,53,15.10
2006,08,22,14,54,15.00
2006,08,22,14,55,14.90
2006,08,22,14,56,14.80
2006,08,22,14,57,14.80
2006,08,22,14,58,14.70
2006,08,22,14,59,14.70
2006,08,22,15,00,14.60
2006,08,22,15,01,14.70
2006,08,22,15,02,14.60
2006,08,22,15,03,14.50
2006,08,22,15,04,14.50
2006,08,22,15,05,14.60
2006,08,22,15,06,14.90
2006,08,22,15,07,14.90
2006,08,22,15,08,15.00
2006,08,22,15,09,15.10
2006,08,22,15,10,15.30
2006,08,22,15,11,15.20
2006,08,22,15,12,15.30
2006,08,22,15,13,15.30
2006,08,22,15,14,15.10
2006,08,22,15,15,15.10
2006,08,22,15,16,15.00
2006,08,22,15,17,15.00
2006,08,22,15,18,15.00
2006,08,22,15,19,15.10
2006,08,22,15,20,15.20
2006,08,22,15,21,15.20
2006,08,22,15,22,15.20
2006,08,22,15,23,15.30
2006,08,22,15,24,15.30
2006,08,22,15,25,15.30
2006,08,22,15,26,15.10
2006,08,22,15,27,15.00
2006,08,22,15,28,14.80
2006,08,22,15,29,14.90
2006,08,22,15,30,14.80
2006,08,22,15,31,14.90
2006,08,22,15,32,14.90
2006,08,22,15,33,14.90
2006,08,22,15,34,14.80
2006,08,22,15,35,14.80
2006,08,22,15,36,14.70
2006,08,22,15,37,14.80
2006,08,22,15,38,14.80
2006,08,22,15,39,14.80
2006,08,22,15,40,14.80
2006,08,22,15,41,14.80
2006,08,22,15,42,14.80
2006,08,22,15,43,14.90
2006,08,22,15,44,15.00
2006,08,22,15,45,15.10
2006,08,22,15,46,15.30
2006,08,22,15,47,15.50
2006,08,22,15,48,15.90
2006,08,22,15,49,16.40
2006,08,22,15,50,16.70
2006,08,22,15,51,17.10
2006,08,22,15,52,17.40
2006,08,22,15,53,17.70
2006,08,22,15,54,17.90
2006,08,22,15,55,17.90
2006,08,22,15,56,17.90
2006,08,22,15,57,17.90
2006,08,22,15,58,18.00
2006,08,22,15,59,18.20
2006,08,22,16,00,18.40
2006,08,22,16,01,18.60
2006,08,22,16,02,18.70
2006,08,22,16,03,18.70
2006,08,22,16,04,18.80
2006,08,22,16,05,18.70
2006,08,22,16,06,18.60
2006,08,22,16,07,18.60
2006,08,22,16,08,18.60
2006,08,22,16,09,18.60
2006,08,22,16,10,18.60
2006,08,22,16,11,18.70
2006,08,22,16,12,18.80
2006,08,22,16,13,18.90
2006,08,22,16,14,18.80
2006,08,22,16,15,18.60
2006,08,22,16,16,18.50
2006,08,22,16,17,18.60
2006,08,22,16,18,18.60
2006,08,22,16,19,18.60
2006,08,22,16,20,18.60
2006,08,22,16,21,18.60
2006,08,22,16,22,18.60
2006,08,22,16,23,18.60
2006,08,22,16,24,18.60
2006,08,22,16,25,18.60
2006,08,22,16,26,18.50
2006,08,22,16,27,18.40
2006,08,22,16,28,18.20
2006,08,22,16,29,18.00
2006,08,22,16,30,17.90
2006,08,22,16,31,17.90
2006,08,22,16,32,17.90
2006,08,22,16,33,17.90
2006,08,22,16,34,17.90
2006,08,22,16,35,17.90
2006,08,22,16,36,17.90
2006,08,22,16,37,17.90
2006,08,22,16,38,17.80
2006,08,22,16,39,17.80
2006,08,22,16,40,17.80
2006,08,22,16,41,17.80
2006,08,22,16,42,17.90
2006,08,22,16,43,18.00
2006,08,22,16,44,18.10
2006,08,22,16,45,18.20
2006,08,22,16,46,18.20
2006,08,22,16,47,18.20
2006,08,22,16,48,18.20
2006,08,22,16,49,18.40
2006,08,22,16,50,18.60
2006,08,22,16,51,18.60
2006,08,22,16,52,18.60
2006,08,22,16,53,18.70
2006,08,22,16,54,18.70
2006,08,22,16,55,18.70
2006,08,22,16,56,18.70
2006,08,22,16,57,18.60
2006,08,22,16,58,18.60
2006,08,22,16,59,18.60
2006,08,22,17,00,18.60
2006,08,22,17,01,18.60
2006,08,22,17,02,18.70
2006,08,22,17,03,18.70
2006,08,22,17,04,18.60
2006,08,22,17,05,18.50
2006,08,22,17,06,18.60
2006,08,22,17,07,18.60
2006,08,22,17,08,18.60
2006,08,22,17,09,18.60
2006,08,22,17,10,18.60
2006,08,22,17,11,18.70
2006,08,22,17,12,18.60
2006,08,22,17,13,18.60
2006,08,22,17,14,18.60
2006,08,22,17,15,18.50
2006,08,22,17,16,18.40
2006,08,22,17,17,18.30
2006,08,22,17,18,18.20
2006,08,22,17,19,18.20
2006,08,22,17,20,18.20
2006,08,22,17,21,18.20
2006,08,22,17,22,18.20
2006,08,22,17,23,18.10
2006,08,22,17,24,18.10
2006,08,22,17,25,18.20
2006,08,22,17,26,18.10
2006,08,22,17,27,18.10
2006,08,22,17,28,18.10
2006,08,22,17,29,18.10